sat.trackr.live / text

‹ back to catalog

ZHEDA PIXING 1C

NORAD 37167 · 2010-047C

PAYLOAD ACTIVE UNKNOWN

§ Identity

Operator
Country
PRC
Launch date
2010-09-22
Launch site
JSC
Launch vehicle
Mass (kg)
RCS (m²)
0.15

External: N2YO · Heavens-Above · Gunter

§ Orbital elements

Epoch: 2026-09-10T04:23:13.113024Z

Period
96.57 min
Inclination
97.9866°
Eccentricity
0.0019422
Mean motion
14.91187494 rev/d
Perigee alt
580.7 km
Apogee alt
607.8 km
Semi-major
6,972.4 km
B*
2.3408e-4
RAAN
235.7684°
Arg perigee
12.3500°
Mean anomaly
347.8190°
Rev number
86,309

§ Raw data

ZHEDA PIXING 1C1 37167U 10047C   26253.18279066  .00002274  00000+0  23408-3 0  99972 37167  97.9866 235.7684 0019422  12.3500 347.8190 14.91187494863091

JSON: /api/v1/satellites/37167 · /tle

For live sub-satellite position, see the globe view (requires WebGL).

§ Visibility from observer

Set your observer location to see the next 7 days of passes ≥ 10°. The values pass through the URL so the page stays shareable.

No JS? Fill the form by hand. The geolocation button needs JavaScript.

§ Radio — SatNOGS DB

ModeDescriptionDownlinkUplink
FM S-band telemetry 2.285 GHz

1 transmitter · refreshed weekly from db.satnogs.org